Location: Unspecified
(42.3650°N, 71.1030°W)
Time: 23:16:22
(UTC+00:00)

Cosmos 1271 Rocket - Pass Details

Date: 02 March 2024
Orbit: 476 x 512 km, 81.2° (Epoch: 15 April)

Event Time Altitude Azimuth Distance (km) Brightness Sun altitude
Rises 23:13:49 0° 165° (SSE) 2,515 6.1 -7.7°
Reaches altitude 10° 23:16:04 10° 154° (SSE) 1,642 5.0 -8.2°
Maximum altitude 23:19:13 29° 93° (E) 901 3.4 -8.7°
Drops below altitude 10° 23:22:23 10° 32° (NNE) 1,659 5.0 -9.3°
Sets 23:24:40 0° 21° (NNE) 2,548 6.0 -9.7°
